Location: Bear Valley Community Church - Hurst
(32.8460°N, 97.1828°W)
Time: 07:04:28
(UTC+00:00)

Cosmos 1328 Rocket - Pass Details

Date: 06 July 2022
Orbit: 600 x 627 km, 82.5° (Epoch: 14 August)

Event Time Altitude Azimuth Distance (km) Brightness Sun altitude
Rises 09:11:35 0° 341° (NNW) 2,893 7.4 -22.9°
Reaches altitude 10° 09:14:00 10° 331° (NNW) 1,979 6.4 -22.6°
Enters shadow 09:16:47 27° 297° (WNW) 1,180 4.8 -22.2°
